IRIDIUM 7 [+]

Last updated on Tue May 29 2018 00:19:51 GMT+0000 (Coordinated Universal Time)

1 24793U 97020B 18148.57974970 .00000073 00000-0 19022-4 0 9991 2 24793 86.3976 174.6423 0002328 88.5668 271.5795 14.34254843102477

Satellite not in orbit

IRIDIUM 7 [+]